TimePDT,TemperatureF,Dew PointF,Humidity,Sea Level PressureIn,VisibilityMPH,Wind Direction,Wind SpeedMPH,Gust SpeedMPH,PrecipitationIn,Events,Conditions,WindDirDegrees,DateUTC
12:55 AM,64.0,39.0,40,30.13,10.0,West,6.9,-,N/A,,Clear,280,2012-09-08 07:55:00
1:55 AM,64.0,39.0,40,30.12,10.0,WNW,10.4,-,N/A,,Clear,290,2012-09-08 08:55:00
2:55 AM,59.0,39.9,49,30.12,10.0,NNW,4.6,-,N/A,,Clear,330,2012-09-08 09:55:00
3:55 AM,60.1,39.0,46,30.12,10.0,NW,6.9,-,N/A,,Clear,310,2012-09-08 10:55:00
4:55 AM,55.9,37.9,51,30.12,10.0,North,8.1,-,N/A,,Clear,360,2012-09-08 11:55:00
5:55 AM,55.9,39.9,55,30.12,10.0,Calm,Calm,-,N/A,,Clear,0,2012-09-08 12:55:00
6:55 AM,57.9,39.0,49,30.13,10.0,NW,6.9,-,N/A,,Clear,320,2012-09-08 13:55:00
7:55 AM,60.1,39.9,47,30.13,10.0,NW,3.5,-,N/A,,Clear,310,2012-09-08 14:55:00
8:55 AM,62.1,39.9,44,30.12,10.0,WNW,4.6,-,N/A,,Clear,290,2012-09-08 15:55:00
9:55 AM,66.0,39.0,37,30.10,10.0,West,6.9,-,N/A,,Clear,270,2012-09-08 16:55:00
10:55 AM,71.1,39.9,32,30.09,10.0,Calm,Calm,-,N/A,,Clear,0,2012-09-08 17:55:00
11:55 AM,75.0,39.0,27,30.06,10.0,Calm,Calm,-,N/A,,Clear,0,2012-09-08 18:55:00
12:55 PM,79.0,41.0,26,30.02,10.0,Calm,Calm,-,N/A,,Clear,0,2012-09-08 19:55:00
1:55 PM,82.9,44.1,25,29.99,10.0,Calm,Calm,-,N/A,,Clear,0,2012-09-08 20:55:00
2:55 PM,86.0,39.0,19,29.95,10.0,Calm,Calm,-,N/A,,Clear,0,2012-09-08 21:55:00
3:55 PM,86.0,41.0,20,29.91,10.0,East,5.8,-,N/A,,Clear,100,2012-09-08 22:55:00
4:55 PM,86.0,44.1,23,29.89,10.0,East,4.6,-,N/A,,Clear,100,2012-09-08 23:55:00
5:55 PM,84.0,44.1,25,29.87,10.0,East,4.6,-,N/A,,Partly Cloudy,80,2012-09-09 00:55:00
6:55 PM,80.1,53.1,39,29.85,10.0,NE,5.8,-,0.00,,Scattered Clouds,50,2012-09-09 01:55:00
8:55 PM,77.0,46.0,33,29.85,10.0,South,18.4,176.1,0.00,,Mostly Cloudy,180,2012-09-09 03:55:00
9:55 PM,78.1,43.0,29,29.86,10.0,NNW,8.1,-,N/A,,Mostly Cloudy,330,2012-09-09 04:55:00
10:55 PM,73.9,48.0,40,29.86,10.0,WNW,12.7,-,N/A,,Clear,290,2012-09-09 05:55:00
11:55 PM,71.1,50.0,47,29.83,10.0,NW,6.9,-,N/A,,Clear,320,2012-09-09 06:55:00